Regional Weather Roundup
Issued by NWS

Home | Current Version | Previous Version | Graphics & Text | Print | Product List | Glossary On
Versions: 1 2 3 4 5 6 7 8 9 10 11 12 13 14 15 16 17 18 19 20 21 22 23 24 25 26 27 28 29 30 31 32 33 34 35 36 37 38 39 40 41 42 43 44 45 46 47 48 49 50
000
ASUS43 KLOT 261807
RWRIL

ILLINOIS REGIONAL WEATHER ROUNDUP
NATIONAL WEATHER SERVICE CHICAGO/ROMEOVILLE IL
100 PM CDT WED APR 26 2017

NOTE: "FAIR" INDICATES FEW OR NO CLOUDS BELOW 12,000 FEET WITH NO
SIGNIFICANT WEATHER AND/OR OBSTRUCTIONS TO VISIBILITY.

* THESE STATIONS ARE NOT UNDER NWS QUALITY CONTROL. THEY ALSO MAY NOT
  REPORT WEATHER SUCH AS PRECIPITATION OR FOG.

ILZ001-002-007-009-015-016-024-261900-
NORTHWEST ILLINOIS

CITY           SKY/WX    TMP DP  RH WIND       PRES   REMARKS
MOLINE         CLOUDY    55  49  80 W10       29.51R
6HR MIN TEMP:  55; 6HR MAX TEMP:  62; 6HR PCP:  0.12;

STERLING*      CLOUDY    61  58  90 W12       29.49R
SAVANNA*       CLOUDY    57  52  84 SW13      29.50R
$$

ILZ003-004-008-010-011-017-018-261900-
NORTH CENTRAL ILLINOIS

CITY           SKY/WX    TMP DP  RH WIND       PRES   REMARKS
ROCKFORD       CLOUDY    68  59  73 SW16G24   29.48R
6HR MIN TEMP:  60; 6HR MAX TEMP:  68; 6HR PCP:  0.48;

FREEPORT*      CLOUDY    61  58  87 SW15G22   29.49R
ROCHELLE*      CLOUDY    68  62  79 SW21      29.48S
DE KALB*       CLOUDY    69  61  75 SW15      29.49R
PERU*          CLOUDY    70  58  65 SW13G18   29.49S
$$

ILZ005-006-012>014-019>023-261900-
NORTHEAST ILLINOIS

CITY           SKY/WX    TMP DP  RH WIND       PRES   REMARKS
CHICAGO-OHARE  PTSUNNY   74  57  55 SW18G25   29.47R
6HR MIN TEMP:  65; 6HR MAX TEMP:  74;

CHICAGO-MIDWAY PTSUNNY   75  58  55 W21G29    29.47R
6HR MIN TEMP:  66; 6HR MAX TEMP:  76;

AURORA         MOSUNNY   72  59  63 SW16G23   29.48S
6HR MIN TEMP:  65; 6HR MAX TEMP:  72;

LANSING*       MOSUNNY   76  60  56 SW22G31   29.48R
JOLIET*        PTSUNNY   73  59  61 SW12      29.49S
WAUKEGAN       PTSUNNY   71  58  63 SW15G28   29.45S
6HR MIN TEMP:  57; 6HR MAX TEMP:  72;

DUPAGE AIRPORT PTSUNNY   71  60  68 SW15G22   29.47S
6HR MIN TEMP:  64; 6HR MAX TEMP:  73;

KANKAKEE*      MOSUNNY   77  56  48 SW20G29   29.52R
WHEELING       MOSUNNY   72  58  61 SW15G24   29.47S
6HR MIN TEMP:  65; 6HR MAX TEMP:  73;

MORRIS*        PTSUNNY   71  57  60 SW13G20   29.48S
ROMEOVILLE*    PTSUNNY   73  61  67 SW13G18   29.49S
NORTHERLY ISL    N/A     74  53  48 W15         N/A
$$

LMZ740>746-261900-
SOUTHERN LAKE MICHIGAN

STATION/POSITION SKY/WX   TEMP    WIND        PRES    VSBY  WAVE
                          AIR SEA DIR/SP/G                  HT/PER
                          (F)     (DEG/KT/KT) (MB)    (MI)  (FT/S)
SOUTHERN BUOY              49 41  170/ 12/ 14  997.5          2/ 4
HARRISON CRIB              72     220/ 21/ 26   N/A
BURNHAM HARBOR             74     280/  5/ 20   N/A
CALUMET HARBOR             75     220/ 13/ 23  997.1R
BURNS HARBOR               75     220/ 19/ 30  998.0S
MICHIGAN CITY              76     200/ 24/ 29   N/A
MICHIGAN CITY 6N           65 49                N/A           2/ 3
ST. JOSEPH                 65 49  210/ 14/ 17  997.4S         2/ 3
$$

ILZ025>027-034>036-040-047-049-050-058-095>099-261900-
WEST-CENTRAL ILLINOIS

CITY           SKY/WX    TMP DP  RH WIND       PRES   REMARKS
QUINCY         CLOUDY    54  50  86 W8        29.56R
GALESBURG*     CLOUDY    54  50  89 W13G18    29.53R
MACOMB*        CLOUDY    55  53  91 W12G17    29.58R
JACKSONVILLE*  LGT RAIN  64  58  81 SW7       29.54F
PITTSFIELD*    DRIZZLE   62  59  91 SW6       29.55F
$$

ILZ028>032-037-038-041>044-048-051>054-059>061-261900-
CENTRAL ILLINOIS

CITY           SKY/WX    TMP DP  RH WIND       PRES   REMARKS
PONTIAC        CLOUDY    72  57  58 SW17      29.53R
BLOOMINGTON    CLOUDY    69  58  67 SW14G22   29.55R
DECATUR        CLOUDY    76  56  49 SW25G32   29.54R
PEORIA         CLOUDY    67  59  75 SW13      29.52R
6HR MIN TEMP:  59; 6HR MAX TEMP:  70; 6HR PCP: TRACE;

LACON*         CLOUDY    68  57  66 SW14      29.50R
LINCOLN*       PTSUNNY   72  59  64 SW6       29.54S
SPRINGFIELD    CLOUDY    71  56  58 SW14G21   29.55S
6HR MIN TEMP:  65; 6HR MAX TEMP:  72;

TAYLORVILLE    CLOUDY    74  55  51 SW17G23   29.54F
6HR MIN TEMP:  65; 6HR MAX TEMP:  75;

$$

ILZ033-039-045-046-055>057-062-063-261900-
EAST-CENTRAL ILLINOIS

CITY           SKY/WX    TMP DP  RH WIND       PRES   REMARKS
CHAMPAIGN      CLOUDY    80  52  37 SW26G33   29.53R HX  80
RANTOUL*       PTSUNNY   79  56  44 SW12G23   29.54R HX  80
MATTOON        PTSUNNY   77  57  50 SW15G21   29.56R
PARIS*         PTSUNNY   81  56  42 SW24G31   29.56R HX  81
$$

ILZ079-100>102-261900-
SOUTHWEST ILLINOIS

CITY           SKY/WX    TMP DP  RH WIND       PRES   REMARKS
ALTON          CLOUDY    68  57  68 SW15      29.58S
BELLEVILLE     CLOUDY    73  60  61 CALM      29.56S
CAHOKIA*       LGT RAIN  69  58  67 SW7       29.57F
SPARTA*        CLOUDY    74  61  64 SW7       29.58S
$$

ILZ064>066-069>071-074>076-080>082-084>086-088>090-092>094-261900-
SOUTH-CENTRAL ILLINOIS

CITY           SKY/WX    TMP DP  RH WIND       PRES   REMARKS
CARBONDALE     CLOUDY    74  65  73 SW12      29.58F
6HR MIN TEMP:  66; 6HR MAX TEMP:  78;

CAIRO*         CLOUDY    77  64  64 S14G22    29.58F
EFFINGHAM*     PTSUNNY   79  56  45 SW17G25   29.58S HX  80
MARION         PTSUNNY   79  64  61 S12       29.58F HX  81
MT. VERNON     PTSUNNY   77  63  61 SW14      29.58F
CENTRALIA*     CLOUDY    77  62  60 S15       29.57S
SALEM*         CLOUDY    79  59  50 S14       29.56F HX  80
METROPOLIS*    CLOUDY    79  65  60 S9G21     29.59F HX  81
$$

ILZ067-068-072-073-078-083-087-091-261900-
SOUTHEAST ILLINOIS

CITY           SKY/WX    TMP DP  RH WIND       PRES   REMARKS
LAWRENCEVILLE  SUNNY     83  60  45 SW20      29.57S HX  83
FLORA*         MOSUNNY   80  59  47 SW14      29.57F HX  81
FAIRFIELD*     CLOUDY    81  62  51 SW10      29.56F HX  82
HARRISBURG*    MOSUNNY   80  65  59 S14G21    29.57F HX  82
ROBINSON*      SUNNY     82  59  46 S17G24    29.57F HX  82
CARMI*         SUNNY     80  65  60 S17G24    29.58F HX  82
$$

ABBREVIATIONS USED IN REMARKS
   TC - TEMPERATURE IN CELSIUS
  WCI - WIND CHILL INDEX
   HX - HEAT INDEX
  VSB - VISIBILITY
$$





USA.gov is the U.S. government's official web portal to all federal, state and local government web resources and services.